Content
SEND FEEDBACK

Daily
Averages
Monthly
Summary
United States of America

MANISTIQUE, MICHIGAN


Home > North America > United States > Michigan
Elevation: 610 feet     Latitude: 45 58N     Longitude: 086 15W

WEATHER
 
SELECT A DAY
Number of Records: 409,741;   Date Range: 5/11/98 - 7/29/14
 
SHARE

PRINT THIS DATA

[ ← Previous Day ]
WEATHER ALMANAC - FEBRUARY 13, 2013
[ Next Day → ]
[ °C ]   °F
Weather ElementAverageHighLow
Temperature28.1 °F33.8 °F (2:34 pm)23 °F (3:54 am)
Dewpoint23.4 °F28.4 °F (8:35 pm)19.4 °F (12:34 am)
Humidity82.3 %93 % (8:35 pm)70 % (2:34 pm)
Barometer29.66 in29.77 in (12:34 am)29.62 in (10:54 pm)
Wind Speed6.1 mph9.2 mph (12:55 am)
Weather ElementAverage
Visibility8.6 mi
Wind DirectionSSW (190.4 °)

Weather ElementTotal
Precipitation---
Heating Degree Days36.6 (Base 65)
Averaged from 70 records on February 13, 2013
WEATHER CONDITIONS BREAKOUT
WIND DIRECTION BREAKOUT
WEATHER BY HOUR - FEBRUARY 13, 2013
[ °C ]   °F
Local TimeTemperatureDewpointHumidityBarometerVisibilityWind DirectionWind SpeedGust SpeedPrecipitationEventsConditions
12:34 AM24.8 °F19.4 °F80 %29.77 in10.0 miSW (220°)6.9 mphOvercast
12:55 AM24.8 °F19.4 °F80 %29.77 in10.0 miSW (220°)9.2 mphOvercast
1:14 AM24.8 °F19.4 °F80 %29.76 in10.0 miSW (220°)8.1 mphOvercast
1:35 AM24.8 °F19.4 °F80 %29.75 in10.0 miSW (220°)8.1 mphOvercast
1:55 AM24.8 °F19.4 °F80 %29.75 in10.0 miSW (230°)8.1 mphMostly Cloudy
2:14 AM24.8 °F19.4 °F80 %29.74 in10.0 miSW (220°)8.1 mphClear
2:35 AM24.8 °F19.4 °F80 %29.73 in10.0 miSW (220°)9.2 mphClear
2:54 AM24.8 °F19.4 °F80 %29.73 in10.0 miSW (220°)9.2 mphClear
3:15 AM24.8 °F19.4 °F80 %29.72 in10.0 miSSW (210°)9.2 mphClear
3:35 AM24.8 °F19.4 °F80 %29.72 in10.0 miSW (220°)9.2 mphClear
3:54 AM23.0 °F19.4 °F86 %29.71 in10.0 miSSW (210°)8.1 mphClear
4:15 AM23.0 °F19.4 °F86 %29.70 in10.0 miSW (220°)5.8 mphClear
4:34 AM23.0 °F19.4 °F86 %29.70 in10.0 miSW (220°)8.1 mphMostly Cloudy
4:54 AM24.8 °F19.4 °F80 %29.69 in10.0 miSW (220°)9.2 mphOvercast
5:15 AM24.8 °F19.4 °F80 %29.69 in10.0 miWSW (240°)5.8 mphOvercast
5:34 AM24.8 °F19.4 °F80 %29.69 in10.0 miWSW (240°)5.8 mphOvercast
5:55 AM24.8 °F19.4 °F80 %29.69 in10.0 miWSW (240°)3.5 mphOvercast
6:15 AM24.8 °F21.2 °F86 %29.68 in10.0 miSW (230°)9.2 mphOvercast
6:34 AM24.8 °F19.4 °F80 %29.68 in10.0 miWSW (240°)9.2 mphOvercast
6:55 AM24.8 °F19.4 °F80 %29.68 in10.0 miWSW (240°)6.9 mphOvercast
7:14 AM24.8 °F21.2 °F86 %29.67 in10.0 miSW (230°)8.1 mphOvercast
7:35 AM24.8 °F21.2 °F86 %29.67 in10.0 miSW (230°)9.2 mphMostly Cloudy
7:55 AM24.8 °F21.2 °F86 %29.67 in7.0 miWSW (240°)9.2 mphOvercast
8:14 AM24.8 °F21.2 °F86 %29.67 in7.0 miSW (230°)8.1 mphOvercast
8:35 AM24.8 °F21.2 °F86 %29.67 in7.0 miSW (220°)6.9 mphOvercast
8:54 AM24.8 °F21.2 °F86 %29.66 in7.0 miSW (230°)5.8 mphOvercast
9:14 AM24.8 °F21.2 °F86 %29.67 in7.0 miSW (230°)5.8 mphOvercast
9:35 AM26.6 °F21.2 °F80 %29.66 in7.0 miWSW (240°)5.8 mphOvercast
9:54 AM26.6 °F21.2 °F80 %29.66 in7.0 miWSW (250°)3.5 mphMostly Cloudy
10:15 AM26.6 °F21.2 °F80 %29.66 in10.0 miSW (230°)5.8 mphOvercast
10:34 AM28.4 °F23.0 °F80 %29.66 in10.0 miWSW (250°)4.6 mphScattered Clouds
10:55 AM28.4 °F23.0 °F80 %29.66 in10.0 miCalmScattered Clouds
11:14 AM28.4 °F23.0 °F80 %29.65 in10.0 miSSW (210°)6.9 mphScattered Clouds
11:34 AM28.4 °F23.0 °F80 %29.65 in10.0 miSSW (210°)6.9 mphClear
11:55 AM30.2 °F23.0 °F75 %29.65 in10.0 miSSW (200°)6.9 mphScattered Clouds
12:14 PM30.2 °F23.0 °F75 %29.65 in10.0 miSSW (210°)8.1 mphScattered Clouds
12:35 PM30.2 °F23.0 °F75 %29.64 in10.0 miSSW (210°)6.9 mphOvercast
12:54 PM30.2 °F24.8 °F80 %29.64 in10.0 miSSW (210°)8.1 mphOvercast
1:15 PM30.2 °F24.8 °F80 %29.63 in10.0 miSouth (190°)8.1 mphOvercast
1:35 PM32.0 °F24.8 °F75 %29.63 in10.0 miSouth (190°)6.9 mphOvercast
1:54 PM30.2 °F24.8 °F80 %29.63 in10.0 miSSW (210°)6.9 mphOvercast
2:15 PM32.0 °F26.6 °F80 %29.63 in10.0 miSSW (200°)6.9 mphOvercast
2:34 PM33.8 °F24.8 °F70 %29.63 in10.0 miSouth (190°)4.6 mphOvercast
2:55 PM33.8 °F24.8 °F70 %29.63 in10.0 miSSW (200°)6.9 mphOvercast
3:14 PM32.0 °F26.6 °F80 %29.63 in10.0 miSouth (190°)6.9 mphOvercast
3:34 PM33.8 °F26.6 °F75 %29.63 in10.0 miSSW (210°)3.5 mphOvercast
3:55 PM33.8 °F26.6 °F75 %29.63 in10.0 miSouth (190°)4.6 mphOvercast
4:14 PM33.8 °F26.6 °F75 %29.63 in10.0 miSouth (190°)5.8 mphOvercast
4:54 PM32.0 °F26.6 °F80 %29.63 in10.0 miSSW (200°)8.1 mphOvercast
5:14 PM32.0 °F26.6 °F80 %29.63 in10.0 miSSW (200°)6.9 mphOvercast
5:35 PM30.2 °F26.6 °F86 %29.63 in10.0 miSouth (190°)6.9 mphOvercast
5:54 PM30.2 °F26.6 °F86 %29.63 in7.0 miSouth (190°)8.1 mphOvercast
6:15 PM30.2 °F26.6 °F86 %29.63 in7.0 miSouth (190°)6.9 mphOvercast
6:35 PM30.2 °F26.6 °F86 %29.63 in7.0 miSSW (200°)5.8 mphOvercast
6:54 PM30.2 °F26.6 °F86 %29.63 in7.0 miSSW (200°)6.9 mphOvercast
7:15 PM30.2 °F26.6 °F86 %29.63 in7.0 miSSW (210°)6.9 mphOvercast
7:34 PM30.2 °F26.6 °F86 %29.64 in7.0 miSSW (200°)6.9 mphOvercast
7:54 PM30.2 °F26.6 °F86 %29.63 in7.0 miSSW (200°)5.8 mphOvercast
8:14 PM30.2 °F26.6 °F86 %29.64 in7.0 miSSW (200°)6.9 mphOvercast
8:35 PM30.2 °F28.4 °F93 %29.64 in5.0 miSSW (210°)5.8 mphOvercast
8:55 PM30.2 °F28.4 °F93 %29.64 in5.0 miSW (220°)4.6 mphOvercast
9:14 PM30.2 °F28.4 °F93 %29.64 in5.0 miSSW (210°)4.6 mphOvercast
9:35 PM30.2 °F26.6 °F86 %29.63 in5.0 miCalmOvercast
9:54 PM30.2 °F26.6 °F86 %29.64 in4.0 miCalmOvercast
10:15 PM30.2 °F26.6 °F86 %29.63 in4.0 miCalmOvercast
10:34 PM30.2 °F26.6 °F86 %29.63 in5.0 miCalmOvercast
10:54 PM28.4 °F26.6 °F93 %29.62 in4.0 miCalmOvercast
11:15 PM30.2 °F26.6 °F86 %29.62 in4.0 miSW (220°)3.5 mphScattered Clouds
11:34 PM30.2 °F26.6 °F86 %29.62 in7.0 miCalmScattered Clouds
11:55 PM30.2 °F26.6 °F86 %29.62 in7.0 miCalmScattered Clouds
Hourly data recorded from KISQ, located miles away from Manistique, Michigan







STORIES FROM OUR PARTNERS